Location: Asheville, NC
(35.6000°N, 82.5500°W)
Time: 16:22:16
(UTC-05:00)

Vanguard 2 - Pass Details

Date: 12 February 2018
Orbit: 553 x 2939 km, 32.9° (Epoch: 20 February)

Event Time Altitude Azimuth Distance (km) Brightness Sun altitude
Rises 01:54:33 0° 269° (W) 2,720 - -63.0°
Reaches altitude 10° 01:56:57 10° 254° (WSW) 1,884 - -62.7°
Maximum altitude 02:00:18 24° 199° (SSW) 1,361 - -62.2°
Drops below altitude 10° 02:04:28 10° 146° (SSE) 2,377 - -61.6°
Sets 02:07:55 0° 133° (SE) 3,652 - -61.1°
